Location: Asheville, NC
(35.6000°N, 82.5500°W)
Time: 04:59:44

XW-2F - Pass Details

Date: 09 January 2018
Orbit: 507 x 527 km, 97.5° (Epoch: 22 March)

Event Time Altitude Azimuth Distance (km) Brightness Sun altitude
Rises 06:17:41 0° 18° (NNE) 2,644 ? -16.5°
Reaches altitude 10° 06:19:51 10° 24° (NNE) 1,748 ? -16.0°
Maximum altitude 06:23:30 48° 99° (E) 682 ? -15.3°
Drops below altitude 10° 06:27:05 10° 175° (S) 1,724 ? -14.6°
Sets 06:29:13 0° 181° (S) 2,602 ? -14.2°
